Location: Austin
(30.3000°N, 97.7500°W)
Time: 04:01:06
(UTC-05:00)

CENTAUR R/B - Pass Details

Date: 18 March 2023
Orbit: 700 x 1487 km, 63.4° (Epoch: 27 March)

Event Time Altitude Azimuth Distance (km) Brightness Sun altitude
Rises 21:56:51 0° 338° (NNW) 4,302 6.4 -29.7°
Reaches altitude 10° 21:59:48 10° 345° (NNW) 3,419 5.7 -30.3°
Enters shadow 22:07:10 42° 43° (NE) 1,967 3.8 -31.8°
